Regional Weather Roundup
Issued by NWS

Home | Current Version | Previous Version | Graphics & Text | Print | Product List | Glossary On
Versions: 1 2 3 4 5 6 7 8 9 10 11 12 13 14 15 16 17 18 19 20 21 22 23 24 25 26 27 28 29 30 31 32 33 34 35 36 37 38 39 40 41 42 43 44 45 46 47 48 49 50
000
ASUS45 KCYS 210210
RWRWY

WYOMING REGIONAL WEATHER ROUNDUP
NATIONAL WEATHER SERVICE CHEYENNE WY
800 PM MDT SAT SEP 20 2014

NOTE:  "FAIR" INDICATES FEW OR NO CLOUDS BELOW 12,000 FEET
WITH NO SIGNIFICANT WEATHER AND/OR OBSTRUCTIONS TO VISIBILITY.

WYZ001-210300-
YELLOWSTONE NATIONAL PARK

CITY           SKY/WX    TMP DP  RH WIND       PRES   REMARKS
LK YELLOWSTONE   N/A     48  41  76 NW5       30.40R
W YELLOWSTONE  NOT AVBL

$$
WYZ002>013-054>058-071-098>099-210300-
NORTHERN WYOMING

CITY           SKY/WX    TMP DP  RH WIND       PRES   REMARKS
JACKSON        CLEAR     59  45  58 VRB7      30.26S
CODY             N/A    N/A N/A N/A MISG        N/A
GREYBULL       CLEAR     68  39  34 NW10      30.20R
WORLAND        CLEAR     62  42  47 CALM      30.21R
SHERIDAN       CLEAR     54  43  66 W6        30.27R
BUFFALO        CLEAR     55  41  59 W9        30.32R
GILLETTE       PTCLDY    50  37  61 CALM      30.28R
HULETT         FAIR      61  37  41 MISG      30.29
NEWCASTLE      FAIR      61  32  33 N8        30.27

$$
WYZ014>020-022>026-101>103-210300-
CENTRAL WYOMING

CITY           SKY/WX    TMP DP  RH WIND       PRES   REMARKS
BIG PINEY      CLEAR     67  27  22 SE5       30.30S
PINEDALE       CLEAR     61  30  31 SE5       30.32R
DUBOIS         FAIR      59  37  44 SE7       30.35R
LANDER         CLEAR     68  40  35 CALM      30.25R
RIVERTON       CLEAR     67  39  35 N10       30.26R
CASPER         CLEAR     64  37  36 E12       30.30R
DOUGLAS        CLEAR     60  36  40 E5        30.31R

$$
WYZ021-027>030-104>119-210300-
SOUTHERN WYOMING

CITY           SKY/WX    TMP DP  RH WIND       PRES   REMARKS
EVANSTON       CLEAR     66  30  26 E8        30.28S
KEMMERER       CLEAR     63  32  31 E5        30.31S
ROCK SPRINGS   CLEAR     65  32  29 E9        30.28R
DIXON          FAIR      62  37  39 NE8       30.28R
RAWLINS        CLEAR     66  38  35 NE17      30.31R
SARATOGA       FAIR      59  36  41 CALM      30.32R
LARAMIE        CLEAR     61  42  49 E16       30.37R
CHEYENNE       MOCLDY    65  44  46 NE6       30.33R
TORRINGTON     CLEAR     65  39  38 NE13      30.23R
PINE BLUFFS    FAIR      63  43  48 NE3       30.28R

$$



USA.gov is the U.S. government's official web portal to all federal, state and local government web resources and services.